PROFILE

 METAR AND TAF INFORMATION
ADDS - METARS form results

(0540 UTC 19 July 2019)
http://aviationweather.gov/metar/data/
 
EGJJ 190520Z 20009KT 9999 FEW010 16/15 Q1014
EGJJ 190450Z 20008KT 9999 FEW010 15/14 Q1014
TAF EGJJ 190501Z 1906/1915 20012KT 9999 FEW010 BKN030 BECMG 1907/1909 BKN015 TEMPO 1907/1915 7000 -DZ BKN010 PROB30 TEMPO 1909/1915 4000 BR BKN005 

 AIRPORT MAP

 RUNWAY INFORMATION
Runway 09 Runway length 5597 ft Runway width 151 ft
Runway elevation 270 ft Runway displaced threshold 200 ft Runway heading 83
Runway 27 Runway length 5597 ft Runway width 151 ft
Runway elevation 271 ft Runway displaced threshold 299 ft Runway heading 263

 AIRPORT FREQUENCIES
Type APP Name APP Frequency 120.3 MHZ
Type ATIS Name INFO Frequency 112.2 MHZ
Type GND Name GND Frequency 121.9 MHZ
Type RDR Name RDR Frequency 118.55 MHZ
Type TWR Name TWR Frequency 119.45 MHZ

 AIRPORT NEAR NAVIGATION AIDS
Type VOR-DME Name Jersey Frequency 112200 KHZ